Regional Weather Roundup
Issued by NWS

Home | Current Version | Previous Version | Graphics & Text | Print | Product List | Glossary On
Versions: 1 2 3 4 5 6 7 8 9 10 11 12 13 14 15 16 17 18 19 20 21 22 23 24 25 26 27 28 29 30 31 32 33 34 35 36 37 38 39 40 41 42 43 44 45 46 47 48 49 50
000
ASUS43 KOAX 040902
RWRNE

WEATHER ROUNDUP FOR NEBRASKA
NATIONAL WEATHER SERVICE OMAHA NE
300 AM CST WED MAR 04 2015

NOTES: SATELLITE DATA IS BEING USED TO AUGMENT CLOUD COVER ABOVE
       12000 FEET.
       "FAIR" INDICATES FEW OR NO CLOUDS BELOW 12,000 FEET WITH NO
       SIGNIFICANT WEATHER AND/OR OBSTRUCTIONS TO VISIBILITY.

  * THESE STATIONS DO NOT REPORT WEATHER SUCH AS RAIN...SNOW OR FOG.

NEZ001>004-019>022-054>056-041000-
NEBRASKA PANHANDLE

CITY           SKY/WX    TMP DP  RH WIND       PRES   REMARKS
SCOTTSBLUFF    MOCLDY     8   5  87 NW7       30.09S WCI  -3
ALLIANCE       PTCLDY     1  -3  83 W8        30.07R WCI -13
CHADRON        PTCLDY     5  -2  72 SW8       30.14R WCI  -8
KIMBALL        CLOUDY    11   7  84 N12       30.01R WCI  -3
SIDNEY         LGT SNOW  13   8  81 N16       30.06R WCI  -3
$$

NEZ057>060-069>072-079>082-041000-
SOUTHWEST NEBRASKA

CITY           SKY/WX    TMP DP  RH WIND       PRES   REMARKS
NORTH PLATTE   MOCLDY    13   9  84 N5        30.13R WCI   5
IMPERIAL       LGT SNOW  16  12  84 N3        30.10R FOG
LEXINGTON      CLOUDY    15  12  87 NW6       30.14S WCI   7
MCCOOK         LGT SNOW  18  14  84 NE5       30.14R FOG     WCI  11
$$

NEZ005>010-023>029-035>040-094-041000-
NORTH CENTRAL NEBRASKA

CITY           SKY/WX    TMP DP  RH WIND       PRES   REMARKS
VALENTINE      PTCLDY     5  -1  76 W6        30.12R WCI  -6
AINSWORTH      PTCLDY     8   1  73 W6        30.11S WCI  -2
BROKEN BOW     PTCLDY    14   9  80 NW8       30.13S WCI   3
ORD            PTCLDY    11   3  70 NW7       30.14S WCI   0
$$

NEZ041-046>049-061>064-073>077-083>087-041000-
SOUTH CENTRAL NEBRASKA

CITY           SKY/WX    TMP DP  RH WIND       PRES   REMARKS
GRAND ISLAND   CLOUDY    16  13  88 NW6       30.16S WCI   7
HASTINGS       LGT SNOW  17  13  84 N8        30.15S FOG     WCI   7
HEBRON         LGT SNOW  18  14  84 N6        30.18F WCI  10
KEARNEY *      CLOUDY    16  10  79 NW5       30.16R WCI   9
$$

NEZ011>018-030>034-042>045-041000-
NORTHEAST NEBRASKA

CITY           SKY/WX    TMP DP  RH WIND       PRES   REMARKS
NORFOLK        MOCLDY    17   6  62 NW5       30.15S WCI  10
BLAIR          CLOUDY    18   8  66 NW7       30.16F WCI   8
COLUMBUS *     CLOUDY    18   7  62 W5        30.18S WCI  11
FREMONT        CLOUDY    18  10  68 NW5       30.19S WCI  11
TEKAMAH        CLOUDY    18   6  59 NW7       30.20R WCI   9
$$

NEZ050>053-065>068-078-088>093-041000-
SOUTHEAST NEBRASKA

CITY           SKY/WX    TMP DP  RH WIND       PRES   REMARKS
LINCOLN        LGT SNOW  18  14  84 N6        30.20S FOG     WCI  10
OMAHA EPPLEY   LGT SNOW  17   9  70 N10       30.20S WCI   5
FALLS CITY     CLOUDY    20   5  52 N14       30.19R WCI   7
$$

NEZ044-045-051>053-067-041000-
OMAHA AREA

CITY           SKY/WX    TMP DP  RH WIND       PRES   REMARKS
OMAHA EPPLEY   LGT SNOW  17   9  70 N10       30.20S WCI   5
BLAIR          CLOUDY    18   8  66 NW7       30.16F WCI   8
FREMONT        CLOUDY    18  10  68 NW5       30.19S WCI  11
OFFUTT AFB     LGT SNOW  17  11  80 N7        30.19S WCI   7
$$



USA.gov is the U.S. government's official web portal to all federal, state and local government web resources and services.